This is the latest recevied weather packets stored in our database for station/object DB0WUN-13. If no packets are shown the sender has not sent any weather packets the latest 1 day(s).
| Time | Temp. | Humidity | Pressure | Rain* | Wind** | Luminosity | Snow |
|---|---|---|---|---|---|---|---|
| 1778074752 | 16.11° C | 63% | 1006.8 hPa | 0 mm | 0.89 m/s, 217° | 290 W/m² | - |
| 1778074692 | 16.11° C | 63% | 1006.9 hPa | 0 mm | 0.89 m/s, 217° | 295 W/m² | - |
| 1778074630 | 16.11° C | 64% | 1006.9 hPa | 0 mm | 0.89 m/s, 217° | 294 W/m² | - |
| 1778074564 | 16.11° C | 62% | 1006.8 hPa | 0 mm | 0.89 m/s, 217° | 285 W/m² | - |
| 1778074510 | 16.11° C | 62% | 1006.8 hPa | 0 mm | 0.89 m/s, 235° | 274 W/m² | - |
| 1778074443 | 16.11° C | 62% | 1006.9 hPa | 0 mm | 1.34 m/s, 261° | 269 W/m² | - |
| 1778074382 | 16.11° C | 62% | 1006.9 hPa | 0 mm | 1.34 m/s, 210° | 260 W/m² | - |
| 1778074327 | 16.11° C | 62% | 1006.9 hPa | 0 mm | 1.34 m/s, 217° | 257 W/m² | - |
| 1778074263 | 16.11° C | 62% | 1006.9 hPa | 0 mm | 1.34 m/s, 175° | 251 W/m² | - |
| 1778074213 | 16.11° C | 62% | 1006.9 hPa | 0 mm | 1.34 m/s, 203° | 246 W/m² | - |
| 1778074174 | 16.11° C | 62% | 1006.9 hPa | 0 mm | 1.79 m/s, 217° | 241 W/m² | - |
| 1778074129 | 16.11° C | 62% | 1006.9 hPa | 0 mm | 1.79 m/s, 178° | 236 W/m² | - |
| 1778074097 | 16.11° C | 62% | 1007 hPa | 0 mm | 1.79 m/s, 187° | 223 W/m² | - |
| 1778074059 | 16.11° C | 62% | 1007 hPa | 0 mm | 1.79 m/s, 217° | 218 W/m² | - |
| 1778074001 | 16.11° C | 62% | 1007 hPa | 0 mm | 1.79 m/s, 208° | 214 W/m² | - |
| 1778073958 | 16.11° C | 63% | 1007.1 hPa | 0 mm | 1.79 m/s, 195° | 213 W/m² | - |
| 1778073784 | 16.11° C | 62% | 1007.1 hPa | 0 mm | 1.79 m/s, 217° | 213 W/m² | - |
| 1778073729 | 16.11° C | 62% | 1007 hPa | 0 mm | 1.34 m/s, 215° | 211 W/m² | - |
| 1778073668 | 16.11° C | 62% | 1007 hPa | 0 mm | 1.34 m/s, 151° | 214 W/m² | - |
| 1778073608 | 16.11° C | 62% | 1007.1 hPa | 0 mm | 1.34 m/s, 156° | 218 W/m² | - |
| 1778073553 | 16.11° C | 63% | 1007.1 hPa | 0 mm | 1.34 m/s, 152° | 221 W/m² | - |
| 1778073507 | 16.11° C | 63% | 1007.1 hPa | 0 mm | 1.34 m/s, 136° | 223 W/m² | - |
| 1778073470 | 16.11° C | 63% | 1007.1 hPa | 0 mm | 1.34 m/s, 134° | 225 W/m² | - |
| 1778073431 | 16.11° C | 63% | 1007.1 hPa | 0 mm | 1.34 m/s, 174° | 237 W/m² | - |
| 1778073391 | 16.11° C | 64% | 1007.1 hPa | 0 mm | 1.34 m/s, 190° | 241 W/m² | - |
* Rain latest hour (hover to see other rain measurements)
** Current wind speed in m/s (hover to see current wind gust speed)